Location: Elaina
(34.1445°N, 106.7742°W)
Time: 12:21:19
(UTC+00:00)

NOSS 3-1 (C) - Pass Details

Date: 20 March 2026
Orbit: 618 x 1583 km, 63.4° (Epoch: 10 January)

Event Time Altitude Azimuth Distance (km) Brightness Sun altitude
Rises 02:51:55 0° 188° (S) 2,872 5.9 -20.0°
Reaches altitude 10° 02:54:14 10° 179° (S) 1,979 5.0 -20.5°
Enters shadow 02:54:33 12° 177° (S) 1,868 4.8 -20.6°
